Miscellaneous Local Product
Issued by NWS Hastings, NE

Home | Current Version | Previous Version | Text Only | Print | Product List | Glossary On
Versions: 1 2 3 4 5 6 7 8 9 10 11 12 13 14 15 16 17 18 19 20 21 22 23 24 25 26 27 28 29 30 31 32 33 34 35 36 37 38 39 40 41 42 43 44 45 46 47 48 49 50
000
AXUS43 KGID 010502
MISGRI

GID CWA HOURLY WEATHER ROUNDUP
NATIONAL WEATHER SERVICE HASTINGS NE
1200 AM CDT WED JUN 01 2016

NOTE: "FAIR" INDICATES FEW OR NO CLOUDS BELOW 12,000 FEET WITH NO
SIGNIFICANT WEATHER AND/OR OBSTRUCTIONS TO VISIBILITY.

...SOUTH CENTRAL NEBRASKA...

CITY           SKY/WX    TMP DP  RH WIND       PRES   REMARKS
GRAND ISLAND   CLEAR     61  50  67 SW9       30.03S
HASTINGS       CLEAR     61  50  67 SW3       30.04S
KEARNEY        CLEAR     63  48  59 SW7       30.06R
ORD            NOT AVBL
YORK           CLEAR     59  50  72 SW8       30.03S
AURORA         CLEAR     60  51  73 SW8       30.02S
LEXINGTON      MOCLDY    57  53  84 CALM      30.06S
HOLDREGE       CLEAR     62  49  63 SW5       30.06R
HEBRON         CLOUDY    62  59  88 CALM      30.03S

...NEBRASKA PANHANDLE...

CITY           SKY/WX    TMP DP  RH WIND       PRES   REMARKS
CHADRON        CLEAR     47  39  74 CALM      30.12S
ALLIANCE       CLEAR     49  39  68 NW6       30.13R
SCOTTSBLUFF    CLEAR     47  38  71 NW8       30.16R
SIDNEY         CLEAR     45  40  82 CALM      30.15F

...WESTERN AND NORTH CENTRAL NEBRASKA...

CITY           SKY/WX    TMP DP  RH WIND       PRES   REMARKS
VALENTINE      CLEAR     50  43  77 NW7       30.07R
AINSWORTH      CLEAR     53  46  76 W6        30.08R
ONEILL         CLEAR     58  46  65 NW9       30.04S
BROKEN BOW     CLEAR     55  48  77 NW6       30.07R
IMPERIAL       CLEAR     59  50  72 N8        30.10R
NORTH PLATTE   CLEAR     55  44  66 N12       30.09R
MCCOOK         CLEAR     57  50  77 SW6       30.06F

...EASTERN NEBRASKA...

CITY           SKY/WX    TMP DP  RH WIND       PRES   REMARKS
NORFOLK        PTCLDY    63  47  55 NW13G21   30.02R
SO SIOUX CITY  PTCLDY    67  49  52 NW15      29.97R
TEKAMAH        CLOUDY    61  48  62 SW8       29.96R
COLUMBUS       CLEAR     64  45  48 SW7       30.00S
ALBION         CLEAR     60  47  62 N7        30.04R
OMAHA EPPLEY   CLOUDY    64  56  75 CALM      29.97S
MILLARD        CLOUDY    62  57  83 CALM      29.98S
LINCOLN        CLOUDY    67  52  58 W3        30.00F
NEBRASKA CITY  CLEAR     64  58  78 NW3       29.98F
BEATRICE       CLEAR     64  55  72 CALM      30.00S
FALLS CITY     CLEAR     65  60  84 NW3       29.97R

...NORTHERN KANSAS...

CITY           SKY/WX    TMP DP  RH WIND       PRES   REMARKS
GOODLAND       CLOUDY    56  50  80 SE3       30.10S
HILL CITY      CLEAR     57  53  86 NW3       30.07R
NORTON         CLEAR     57  48  72 CALM      30.07R
PHILLIPSBURG   CLEAR     57  55  94 CALM      30.06S
SMITH CENTER   CLEAR     57  55  94 CALM      30.06R
BELOIT         CLEAR     41  39  93 CALM      30.02S
HAYS           CLEAR     59  50  72 N6        30.04F
RUSSELL        CLEAR     63  57  81 N7        30.02F
CONCORDIA      CLEAR     62  57  83 NW6       30.02S
SALINA         CLOUDY    68  61  78 NE5       30.01R
TOPEKA         CLOUDY    67  63  87 CALM      29.98R



USA.gov is the U.S. government's official web portal to all federal, state and local government web resources and services.